Regional Weather Roundup
Issued by NWS

Home | Current Version | Previous Version | Text Only | Print | Product List | Glossary On
Versions: 1 2 3 4 5 6 7 8 9 10 11 12 13 14 15 16 17 18 19 20 21 22 23 24 25 26 27 28 29 30 31 32 33 34 35 36 37 38 39 40 41 42 43 44 45 46 47 48 49 50
000
ASUS42 KFFC 180803
RWRGA
WEATHER ROUNDUP FOR GEORGIA
NATIONAL WEATHER SERVICE PEACHTREE CITY GA
300 AM EST THU DEC 18 2014

NOTE: "FAIR" INDICATES FEW OR NO CLOUDS BELOW 12,000 FEET WITH NO
SIGNIFICANT WEATHER AND/OR OBSTRUCTIONS TO VISIBILITY.

* = USE WITH CAUTION. THE STATIONS MARKED WITH AN ASTERISK MAY NOT
REPORT WEATHER SUCH AS PRECIPITATION, FOG, OR THUNDER AND ARE NOT
QUALITY CONTROLLED BY NWS.

THE REMARK "TC" DENOTES TEMPERATURE READING IN DEGREES CELSIUS.

GAZ001>058-180900-
NORTH GEORGIA

CITY           SKY/WX    TMP DP  RH WIND       PRES   REMARKS
ATLANTA        CLOUDY    39  32  76 NW8       30.13R WCI  33
ATHENS         CLOUDY    38  33  82 NW6       30.09S WCI  33
CHAMBLEE       CLOUDY    38  32  79 NW6       30.12R WCI  33
PEACHTREE CITY CLOUDY    38  34  85 NW5       30.14S WCI  34
ROME           CLOUDY    37  31  78 N5        30.19R WCI  33
WEST ATLANTA   CLOUDY    39  32  76 NW9       30.15R WCI  33
GAINESVILLE    CLOUDY    37  30  75 NW5       30.10S WCI  33
CARTERSVILLE   CLOUDY    35  31  85 CALM      30.18R


CITY           SKY/WX    TMP DP  RH WIND       PRES   REMARKS
DALTON*        CLOUDY    36  32  87 N10       30.18F WCI  28
MARIETTA       CLOUDY    37  33  84 W7        30.14R WCI  32
$$

GAZ059>098-102>109-180900-
CENTRAL GEORGIA

CITY           SKY/WX    TMP DP  RH WIND       PRES   REMARKS
AUGUSTA-BUSH   PTCLDY    34  32  92 CALM      30.10S
AUGUSTA-DANIEL PTCLDY    42  37  82 W3        30.09F
COLUMBUS       CLOUDY    39  36  89 W3        30.15S
MACON          MOCLDY    36  36 100 VRB5      30.12F WCI  32
ROBINS AFB     MOCLDY    38  35  87 W7        30.13S WCI  33


CITY           SKY/WX    TMP DP  RH WIND       PRES   REMARKS
LAGRANGE*      CLOUDY    38  37  94 CALM      30.16R
SYLVANIA*      PTCLDY    37  37  99 CALM      30.13R
MILLEDGEVILLE* MOCLDY    34  34 100 CALM      30.11S
$$

GAZ099>101-110>166-180900-
SOUTH GEORGIA

CITY           SKY/WX    TMP DP  RH WIND       PRES   REMARKS
SAVANNAH       CLEAR     43  37  79 W3        30.14R
VALDOSTA       PTCLDY    39  38  96 CALM      30.15S FOG
ALMA           CLOUDY    40  38  93 CALM      30.12F
ST SIMONS      MOCLDY    46  42  86 W3        30.13F
FT STEWART     CLEAR     39  37  92 CALM      30.12S
ALBANY         CLOUDY    41  39  93 CALM      30.18S
HUNTER AFB     CLEAR     41  39  93 W2        30.11S
MOODY AFB      PTCLDY    42  39  91 W1        30.14S
BRUNSWICK      MOCLDY    43  41  93 CALM      30.14S


CITY           SKY/WX    TMP DP  RH WIND       PRES   REMARKS
BAINBRIDGE*    MOCLDY    43  43 100 CALM      30.18R
MOULTRIE*      CLOUDY    43  43 100 CALM      30.15F
VIDALIA*       PTCLDY    39  37  93 CALM      30.13S
WAYCROSS*      CLOUDY    45  43  94 CALM      30.14R
DOUGLAS*       CLOUDY    43  41  93 CALM      30.15S
$$


USA.gov is the U.S. government's official web portal to all federal, state and local government web resources and services.